Карточка аэропорта URSS

Внимание!
Информация на этой странице в стадии наполнения.
Если вы не увидели какой-то информации, или заметили неточность - пожалуйста сообщите нам!
Спасибо!
Команда RU-STAFF
Название аэропортаСочи
Название аэропорта (англ.)Sochi
Превышение89 ft. (27.1 m.)
Координаты43°26.634', 39°56.55'
Высота перехода13000 ft
Эшелон переходаQNH>=977hPa: FL150; QNH<977hPa: FL160
Коды ответчика1060-1077
Зона ОрВДРостов-на-Дону РПИ (URRV)
Данные METARURSS 170000Z 05002MPS 300V070 9999 NSC 15/05 Q1010 R06/010070 R02/////// NOSIG RMK R02/04006G09MPS QFE757
Проноз погоды (TAF)URSS 161955Z 1621/1721 04007MPS 9999 NSC BECMG 1707/1708 16006G11MPS BECMG 1716/1717 05003G08MPS
NOTAMshow/hide NOTAM
AWOS   TABLE

Информация о ВПП

ВПП Длина ВПП (м.) Покрытие Курс ВПП Частота ILS
242890Цементобетон238 
202500Цементобетон202 
062890Цементобетон58111.1
022500Цементобетон22110.5

Диспетчерские позиции

Позывной Наименование органа УВД Частота
URSS_GNDСочи-Руление119.000
URSS_TWRСочи-Старт121.200
URSS_APPСочи-Подход124.600
URSS_R_APPСочи-Круг119.700
URSS_DELСочи-Деливери132.700
URSSFM1119.000



Спутниковое изображение